sat.trackr.live / text

‹ back to catalog

FENGYUN 4A

NORAD 41882 · 2016-077A

PAYLOAD ACTIVE UNKNOWN

§ Identity

Operator
Country
PRC
Launch date
2016-12-10
Launch site
XICLF
Launch vehicle
Mass (kg)
RCS (m²)
22.59

Purposes: comms, earth_obs

External: N2YO · Heavens-Above · Gunter

§ Orbital elements

Epoch: 2026-09-19T20:58:43.262976Z

Period
1,436.12 min
Inclination
2.5558°
Eccentricity
0.0007941
Mean motion
1.00270521 rev/d
Perigee alt
35,753.5 km
Apogee alt
35,820.4 km
Semi-major
42,165.1 km
B*
0.0000e+0
RAAN
79.0761°
Arg perigee
166.1514°
Mean anomaly
191.3484°
Rev number
3,587

§ Raw data

FENGYUN 4A1 41882U 16077A   26262.87411184 -.00000362  00000+0  00000+0 0  99962 41882   2.5558  79.0761 0007941 166.1514 191.3484  1.00270521 35876

JSON: /api/v1/satellites/41882 · /tle

For live sub-satellite position, see the globe view (requires WebGL).

§ Visibility from observer

Set your observer location to see the next 7 days of passes ≥ 10°. The values pass through the URL so the page stays shareable.

No JS? Fill the form by hand. The geolocation button needs JavaScript.